Location: Pace/Milton
(30.6162°N, 87.1503°W)
Time: 10:50:35
(UTC-06:00)

Envisat - Pass Details

Date: 11 December 2021
Orbit: 764 x 766 km, 98.2° (Epoch: 23 January)

Event Time Altitude Azimuth Distance (km) Brightness Sun altitude
Rises 03:37:08 0° 33° (NNE) 3,232 6.5 -37.6°
Reaches altitude 10° 03:40:12 10° 53° (NE) 2,301 5.9 -36.9°
Maximum altitude 03:43:34 18° 95° (E) 1,817 5.5 -36.2°
Drops below altitude 10° 03:46:55 10° 137° (SE) 2,292 6.0 -35.5°
Sets 03:49:56 0° 156° (SSE) 3,213 6.6 -34.8°
